When you browse on this site, cookies collect data to enhance your experience and personalize the content and advertising you see.
Visit our Privacy Policy to learn more. By continuing to use the site, you agree to this use of cookies and data.
  • en Suisse
  • Liste des pays
  • À 7 jours
  • Température de l'eau
  • Carte météo
  • Widgets météo
  • user-avatar
    Se connecter

    Météo par heure à Mayrhofen

    Ce jour, 27 Mai, Mercredi

    Heure Température Précipitation Vent Pression Humidité
    00:00 +1°C° 0 mm 1 m/s 625 mmHg 94%
    01:00 +1°C° 0 mm 1 m/s 624 mmHg 94%
    02:00 0°C° 0 mm 1 m/s 624 mmHg 91%
    03:00 0°C° 0 mm 1 m/s 624 mmHg 89%
    04:00 0°C° 0 mm 1 m/s 624 mmHg 86%
    05:00 +2°C° 0 mm 1 m/s 625 mmHg 78%
    06:00 +4°C° 0 mm 1 m/s 625 mmHg 70%
    07:00 +6°C° 0 mm 1 m/s 626 mmHg 61%
    08:00 +8°C° 0 mm 1 m/s 626 mmHg 54%
    09:00 +9°C° 0 mm 2 m/s 627 mmHg 46%
    10:00 +10°C° 0 mm 2 m/s 628 mmHg 38%
    11:00 +12°C° 0 mm 2 m/s 628 mmHg 36%
    12:00 +13°C° 0 mm 2 m/s 628 mmHg 34%
    13:00 +14°C° 0 mm 2 m/s 628 mmHg 32%
    14:00 +14°C° 0 mm 2 m/s 627 mmHg 33%
    15:00 +14°C° 0 mm 2 m/s 627 mmHg 34%
    16:00 +13°C° 0 mm 3 m/s 627 mmHg 35%
    17:00 +12°C° 0 mm 2 m/s 626 mmHg 45%
    18:00 +10°C° 0 mm 2 m/s 626 mmHg 54%
    19:00 +8°C° 0 mm 2 m/s 625 mmHg 64%
    20:00 +6°C° 0 mm 2 m/s 625 mmHg 72%
    21:00 +5°C° 0 mm 1 m/s 624 mmHg 80%
    22:00 +3°C° 0 mm 1 m/s 624 mmHg 89%
    23:00 +3°C° 0 mm 1 m/s 624 mmHg 89%

    Demain, 28 Mai, Jeudi

    Heure Température Précipitation Vent Pression Humidité
    00:00 +2°C° 0 mm 1 m/s 623 mmHg 90%
    01:00 +2°C° 0 mm 1 m/s 623 mmHg 90%
    02:00 +2°C° 0 mm 1 m/s 623 mmHg 90%
    03:00 +2°C° 0 mm 1 m/s 623 mmHg 90%
    04:00 +2°C° 0 mm 1 m/s 623 mmHg 90%
    05:00 +4°C° 0 mm 1 m/s 623 mmHg 82%
    06:00 +5°C° 0 mm 1 m/s 623 mmHg 74%
    07:00 +7°C° 0 mm 1 m/s 624 mmHg 65%
    08:00 +8°C° 0 mm 2 m/s 624 mmHg 59%
    09:00 +9°C° 0 mm 2 m/s 625 mmHg 52%
    10:00 +12°C° 0 mm 2 m/s 625 mmHg 45%
    11:00 +12°C° 0.1 mm 2 m/s 625 mmHg 52%
    12:00 +10°C° 0.1 mm 3 m/s 624 mmHg 59%
    13:00 +10°C° 0.1 mm 3 m/s 624 mmHg 66%
    14:00 +9°C° 0.3 mm 3 m/s 624 mmHg 70%
    15:00 +9°C° 0.3 mm 3 m/s 623 mmHg 74%
    16:00 +9°C° 0.3 mm 3 m/s 623 mmHg 78%
    17:00 +8°C° 0.1 mm 2 m/s 623 mmHg 80%
    18:00 +7°C° 0.1 mm 2 m/s 623 mmHg 82%
    19:00 +7°C° 0.1 mm 2 m/s 622 mmHg 84%
    20:00 +5°C° 0 mm 2 m/s 622 mmHg 88%
    21:00 +4°C° 0 mm 2 m/s 622 mmHg 92%
    22:00 +4°C° 0 mm 1 m/s 622 mmHg 96%
    23:00 +4°C° 0 mm 1 m/s 622 mmHg 96%

    Après-demain, 29 Mai, Vendredi

    Heure Température Précipitation Vent Pression Humidité
    00:00 +3°C° 0 mm 1 m/s 622 mmHg 95%
    01:00 +3°C° 0 mm 1 m/s 621 mmHg 95%
    02:00 +2°C° 0 mm 1 m/s 621 mmHg 95%
    03:00 +2°C° 0 mm 1 m/s 621 mmHg 94%
    04:00 +1°C° 0 mm 1 m/s 620 mmHg 94%
    05:00 +3°C° 0 mm 1 m/s 621 mmHg 87%
    06:00 +5°C° 0 mm 1 m/s 621 mmHg 80%
    07:00 +6°C° 0 mm 1 m/s 622 mmHg 73%
    08:00 +7°C° 0 mm 2 m/s 622 mmHg 62%
    09:00 +9°C° 0 mm 2 m/s 622 mmHg 51%
    10:00 +10°C° 0 mm 2 m/s 623 mmHg 40%
    11:00 +11°C° 0 mm 3 m/s 623 mmHg 38%
    12:00 +12°C° 0 mm 3 m/s 623 mmHg 36%
    13:00 +12°C° 0 mm 3 m/s 623 mmHg 34%
    14:00 +12°C° 0 mm 3 m/s 622 mmHg 37%
    15:00 +12°C° 0 mm 3 m/s 622 mmHg 39%
    16:00 +12°C° 0 mm 3 m/s 621 mmHg 42%
    17:00 +10°C° 0 mm 3 m/s 621 mmHg 51%
    18:00 +9°C° 0 mm 2 m/s 620 mmHg 59%
    19:00 +8°C° 0 mm 2 m/s 620 mmHg 68%
    20:00 +5°C° 0 mm 2 m/s 620 mmHg 76%
    21:00 +4°C° 0 mm 1 m/s 619 mmHg 84%
    22:00 +2°C° 0 mm 1 m/s 619 mmHg 93%
    23:00 +2°C° 0 mm 1 m/s 618 mmHg 93%

    30 Mai, Samedi

    Heure Température Précipitation Vent Pression Humidité
    00:00 +1°C° 0 mm 1 m/s 618 mmHg 93%
    01:00 +1°C° 0 mm 1 m/s 618 mmHg 94%
    02:00 +1°C° 0 mm 1 m/s 618 mmHg 93%
    03:00 +1°C° 0 mm 1 m/s 618 mmHg 93%
    04:00 0°C° 0 mm 1 m/s 618 mmHg 93%
    05:00 +2°C° 0 mm 1 m/s 618 mmHg 84%
    06:00 +4°C° 0 mm 1 m/s 619 mmHg 75%
    07:00 +6°C° 0 mm 1 m/s 620 mmHg 67%
    08:00 +8°C° 0 mm 1 m/s 620 mmHg 58%
    09:00 +8°C° 0 mm 2 m/s 621 mmHg 49%
    10:00 +10°C° 0 mm 2 m/s 621 mmHg 40%
    11:00 +12°C° 0 mm 2 m/s 621 mmHg 39%
    12:00 +12°C° 0 mm 3 m/s 621 mmHg 38%
    13:00 +12°C° 0 mm 3 m/s 621 mmHg 36%
    14:00 +12°C° 0 mm 3 m/s 621 mmHg 40%
    15:00 +12°C° 0 mm 3 m/s 621 mmHg 43%
    16:00 +12°C° 0 mm 3 m/s 621 mmHg 46%
    17:00 +10°C° 0 mm 3 m/s 620 mmHg 54%
    18:00 +9°C° 0 mm 2 m/s 620 mmHg 62%
    19:00 +7°C° 0 mm 2 m/s 619 mmHg 71%
    20:00 +5°C° 0 mm 2 m/s 619 mmHg 78%
    21:00 +5°C° 0 mm 1 m/s 618 mmHg 86%
    22:00 +3°C° 0 mm 1 m/s 618 mmHg 94%
    23:00 +2°C° 0 mm 1 m/s 618 mmHg 94%

    31 Mai, Dimanche

    Heure Température Précipitation Vent Pression Humidité
    00:00 +2°C° 0 mm 1 m/s 618 mmHg 95%
    01:00 +2°C° 0 mm 1 m/s 618 mmHg 95%
    02:00 +2°C° 0 mm 1 m/s 617 mmHg 95%
    03:00 +2°C° 0 mm 1 m/s 617 mmHg 95%
    04:00 +1°C° 0 mm 1 m/s 617 mmHg 95%
    05:00 +3°C° 0 mm 1 m/s 618 mmHg 88%
    06:00 +4°C° 0 mm 1 m/s 618 mmHg 81%
    07:00 +6°C° 0 mm 1 m/s 619 mmHg 73%
    08:00 +7°C° 0 mm 2 m/s 620 mmHg 65%
    09:00 +8°C° 0 mm 2 m/s 620 mmHg 58%
    10:00 +10°C° 0 mm 2 m/s 621 mmHg 50%
    11:00 +12°C° 0 mm 2 m/s 621 mmHg 50%
    12:00 +11°C° 0 mm 3 m/s 620 mmHg 50%
    13:00 +11°C° 0 mm 3 m/s 620 mmHg 50%
    14:00 +11°C° 0 mm 3 m/s 620 mmHg 51%
    15:00 +11°C° 0 mm 3 m/s 620 mmHg 52%
    16:00 +11°C° 0 mm 3 m/s 620 mmHg 53%
    17:00 +9°C° 0 mm 3 m/s 619 mmHg 59%
    18:00 +8°C° 0 mm 3 m/s 619 mmHg 65%
    19:00 +7°C° 0 mm 2 m/s 619 mmHg 71%
    20:00 +6°C° 0 mm 2 m/s 619 mmHg 78%
    21:00 +4°C° 0 mm 2 m/s 618 mmHg 86%
    22:00 +4°C° 0 mm 1 m/s 618 mmHg 93%
    23:00 +4°C° 0 mm 1 m/s 618 mmHg 93%

    1 Juin, Lundi

    Heure Température Précipitation Vent Pression Humidité
    00:00 +4°C° 0 mm 1 m/s 618 mmHg 93%
    01:00 +4°C° 0 mm 1 m/s 618 mmHg 93%
    02:00 +3°C° 0 mm 1 m/s 618 mmHg 94%
    03:00 +2°C° 0 mm 1 m/s 617 mmHg 94%
    04:00 +2°C° 0 mm 1 m/s 617 mmHg 94%
    05:00 +4°C° 0 mm 1 m/s 617 mmHg 85%
    06:00 +5°C° 0 mm 1 m/s 618 mmHg 75%
    07:00 +7°C° 0 mm 1 m/s 619 mmHg 65%
    08:00 +8°C° 0 mm 2 m/s 619 mmHg 60%
    09:00 +9°C° 0 mm 2 m/s 620 mmHg 55%
    10:00 +12°C° 0 mm 2 m/s 620 mmHg 50%
    11:00 +13°C° 0 mm 2 m/s 620 mmHg 50%
    12:00 +13°C° 0 mm 2 m/s 620 mmHg 50%
    13:00 +14°C° 0 mm 2 m/s 620 mmHg 50%
    14:00 +14°C° 0 mm 2 m/s 620 mmHg 51%
    15:00 +14°C° 0 mm 2 m/s 620 mmHg 53%
    16:00 +14°C° 0 mm 2 m/s 620 mmHg 54%
    17:00 +13°C° 0 mm 2 m/s 620 mmHg 61%
    18:00 +12°C° 0 mm 2 m/s 619 mmHg 68%
    19:00 +11°C° 0 mm 1 m/s 619 mmHg 74%
    20:00 +9°C° 0 mm 1 m/s 618 mmHg 81%
    21:00 +7°C° 0 mm 1 m/s 618 mmHg 87%
    22:00 +4°C° 0 mm 0 m/s 617 mmHg 93%
    23:00 +5°C° 0 mm 1 m/s 617 mmHg 93%
    Voir plus